Location: Conflandey
(47.7287°N, 6.0456°E)
Time: 04:03:17
(UTC+00:00)

Cosmos 1300 - Pass Details

Date: 24 October 2021
Orbit: 509 x 512 km, 82.5° (Epoch: 05 December)

Event Time Altitude Azimuth Distance (km) Brightness Sun altitude
Rises 17:52:50 0° 192° (SSW) 2,613 6.5 -14.4°
Reaches altitude 10° 17:54:57 10° 194° (SSW) 1,732 5.6 -14.7°
Maximum altitude 17:58:45 74° 279° (W) 539 2.9 -15.4°
Drops below altitude 10° 18:02:35 10° 6° (N) 1,746 5.3 -16.0°
Sets 18:04:43 0° 8° (N) 2,637 6.2 -16.4°
